Location: Clanezzo
(45.7500°N, 9.6000°E)
Time: 23:13:52
(UTC+00:00)

EO-79 - Pass Details

Date: 05 July 2022
Orbit: 588 x 603 km, 98.0° (Epoch: 07 August)

Event Time Altitude Azimuth Distance (km) Brightness Sun altitude
Rises 00:02:04 0° 29° (NNE) 2,858 ? -21.0°
Reaches altitude 10° 00:04:53 10° 49° (NE) 1,951 ? -20.9°
Maximum altitude 00:07:44 17° 92° (E) 1,521 ? -20.8°
Enters shadow 00:09:11 15° 116° (ESE) 1,640 ? -20.8°
